Welcome to Northern Hawkes Bay. New Zealand.
PWS Header
      nz Flag



Hit Counter


W3C Valid W3C Valid logo


    Wairoa

Select any of the Stations below to visit their websites.










Historic Data from Weather Underground
Select the location of interest below. Wairoa is the default. Please have patience, this Data is slow to load in.
Northern Hawkes Bay Historical Data
Daily Summary for May 1, 2017 Units:  Metric    English   Both
« Previous Day
Next Day »
Daily Weekly Monthly Yearly Custom
  High: Low: Average:
Temperature: 12.9 °C 9.5 °C 10.9 °C
Dew Point: 11.3 °C 6.1 °C 8.7 °C
Humidity: 99% 64% 86%
Wind Speed: 46.5km/h 0.0km/h 23.6km/h
Wind Gust: 67.3km/h - -
Wind- - WSW
Pressure: 1018.5 hPa 1000.6 hPa -
Precipitation: 46.2 mm    
Historical Graphs
 
 
Tabular Data for May 1, 2017
Time Temperature Dew Point Pressure Wind Wind Speed Wind Gust Humidity Rainfall Rate (Hourly) solar
00:04 11.4 °C 10.9 °C 1000.6 hPa WNW 1.1 km/h 17.2 km/h 97% 1.3 mm 0 W/m2
00:09 11.3 °C 10.8 °C 1000.6 hPa WNW 3.5 km/h 15.8 km/h 97% 1.0 mm 0 W/m2
00:14 11.3 °C 10.8 °C 1000.6 hPa WNW 5.0 km/h 15.8 km/h 97% 1.0 mm 0 W/m2
00:19 11.3 °C 10.8 °C 1000.6 hPa WNW 2.6 km/h 8.7 km/h 97% 0.5 mm 0 W/m2
00:24 11.3 °C 10.8 °C 1000.6 hPa Calm   11.1 km/h 97% 0.5 mm 0 W/m2
00:29 11.3 °C 10.8 °C 1000.9 hPa West 2.6 km/h 11.1 km/h 97% 1.0 mm 0 W/m2
00:34 11.3 °C 10.8 °C 1000.9 hPa WNW 5.0 km/h 8.7 km/h 97% 0.5 mm 0 W/m2
00:39 11.3 °C 10.8 °C 1000.6 hPa WNW 3.5 km/h 15.8 km/h 97% 0.5 mm 0 W/m2
00:44 11.3 °C 10.8 °C 1000.6 hPa WNW 2.6 km/h 15.8 km/h 97% 0.5 mm 0 W/m2
01:01 11.3 °C 10.8 °C 1000.9 hPa WSW 1.1 km/h 9.7 km/h 97% 0.3 mm 0 W/m2
01:06 11.3 °C 10.8 °C 1000.9 hPa West 1.1 km/h 11.1 km/h 97% 0.3 mm 0 W/m2
01:11 11.4 °C 10.9 °C 1000.9 hPa Calm   11.1 km/h 97% 0.3 mm 0 W/m2
01:16 11.3 °C 11.0 °C 1000.9 hPa WNW 3.5 km/h 8.7 km/h 98% 0.5 mm 0 W/m2
01:21 11.3 °C 11.0 °C 1000.9 hPa Calm   9.7 km/h 98% 0.5 mm 0 W/m2
01:26 11.3 °C 11.0 °C 1000.9 hPa Calm   9.7 km/h 98% 0.3 mm 0 W/m2
01:31 11.3 °C 11.0 °C 1000.9 hPa WNW 1.1 km/h 7.2 km/h 98% 0.3 mm 0 W/m2
01:36 11.3 °C 11.0 °C 1000.9 hPa WNW 1.1 km/h 11.1 km/h 98% 0.3 mm 0 W/m2
01:41 11.3 °C 11.0 °C 1000.9 hPa WNW 1.1 km/h 11.1 km/h 98% 0.3 mm 0 W/m2
01:46 11.3 °C 11.0 °C 1001.2 hPa Calm   9.7 km/h 98% 0.5 mm 0 W/m2
01:51 11.3 °C 11.0 °C 1001.2 hPa WNW 2.6 km/h 6.1 km/h 98% 0.5 mm 0 W/m2
01:56 11.3 °C 11.0 °C 1000.9 hPa NW 2.6 km/h 7.2 km/h 98% 0.5 mm 0 W/m2
02:01 11.2 °C 10.9 °C 1001.2 hPa NW 2.6 km/h 11.1 km/h 98% 1.0 mm 0 W/m2
02:06 11.2 °C 10.9 °C 1001.2 hPa NW 3.5 km/h 11.1 km/h 98% 1.5 mm 0 W/m2
02:11 11.1 °C 10.8 °C 1001.2 hPa West 3.5 km/h 13.4 km/h 98% 1.8 mm 0 W/m2
02:16 11.2 °C 10.9 °C 1001.2 hPa West 2.6 km/h 13.4 km/h 98% 2.3 mm 0 W/m2
02:21 11.2 °C 10.9 °C 1001.2 hPa West 1.1 km/h 14.8 km/h 98% 2.8 mm 0 W/m2
02:26 11.3 °C 11.0 °C 1001.2 hPa West 11.1 km/h 27.0 km/h 98% 3.8 mm 0 W/m2
02:31 11.5 °C 11.2 °C 1001.2 hPa WSW 15.8 km/h 27.0 km/h 98% 4.6 mm 0 W/m2
02:36 11.6 °C 11.3 °C 1001.2 hPa West 13.4 km/h 27.0 km/h 98% 5.6 mm 0 W/m2
02:41 11.4 °C 11.1 °C 1001.6 hPa WSW 15.8 km/h 29.4 km/h 98% 6.3 mm 0 W/m2
02:46 11.3 °C 11.0 °C 1001.6 hPa WSW 17.2 km/h 29.4 km/h 98% 6.9 mm 0 W/m2
02:51 11.1 °C 10.8 °C 1001.6 hPa West 13.4 km/h 33.1 km/h 98% 7.6 mm 0 W/m2
02:56 11.1 °C 10.8 °C 1001.2 hPa West 15.8 km/h 37.8 km/h 98% 8.1 mm 0 W/m2
03:01 11.0 °C 10.7 °C 1001.6 hPa WSW 15.8 km/h 42.8 km/h 98% 8.4 mm 0 W/m2
03:06 11.0 °C 10.7 °C 1001.6 hPa SW 28.0 km/h 54.1 km/h 98% 9.4 mm 0 W/m2
03:11 10.9 °C 10.8 °C 1001.6 hPa SW 28.0 km/h 54.1 km/h 99% 9.9 mm 0 W/m2
03:16 10.9 °C 10.8 °C 1001.6 hPa WSW 36.7 km/h 61.1 km/h 99% 9.9 mm 0 W/m2
03:21 10.8 °C 10.7 °C 1001.6 hPa WSW 35.6 km/h 61.1 km/h 99% 10.4 mm 0 W/m2
03:25 10.8 °C 10.7 °C 1001.6 hPa WSW 24.5 km/h 57.6 km/h 99% 9.9 mm 0 W/m2
03:30 10.7 °C 10.6 °C 1001.6 hPa WSW 15.8 km/h 56.2 km/h 99% 9.4 mm 0 W/m2
03:36 10.5 °C 10.3 °C 1001.9 hPa WSW 30.6 km/h 48.9 km/h 99% 8.6 mm 0 W/m2
03:41 10.7 °C 10.6 °C 1002.3 hPa WSW 31.7 km/h 48.9 km/h 99% 9.4 mm 0 W/m2
03:46 10.6 °C 10.4 °C 1002.3 hPa West 23.3 km/h 46.5 km/h 99% 9.4 mm 0 W/m2
03:51 10.4 °C 10.3 °C 1002.3 hPa West 19.5 km/h 47.9 km/h 99% 9.9 mm 0 W/m2
03:56 10.3 °C 10.2 °C 1002.3 hPa WSW 29.4 km/h 47.9 km/h 99% 9.9 mm 0 W/m2
04:01 10.4 °C 10.3 °C 1002.6 hPa West 28.0 km/h 45.4 km/h 99% 10.2 mm 0 W/m2
04:06 10.4 °C 10.3 °C 1002.9 hPa WSW 33.1 km/h 46.5 km/h 99% 9.4 mm 0 W/m2
04:11 10.5 °C 10.3 °C 1002.9 hPa SW 27.0 km/h 56.2 km/h 99% 9.4 mm 0 W/m2
04:16 10.4 °C 10.3 °C 1002.9 hPa SW 29.4 km/h 56.2 km/h 99% 8.9 mm 0 W/m2
04:21 10.4 °C 10.1 °C 1002.6 hPa SW 33.1 km/h 48.9 km/h 98% 8.9 mm 0 W/m2
04:26 10.4 °C 10.1 °C 1002.9 hPa WSW 34.3 km/h 52.6 km/h 98% 9.4 mm 0 W/m2
04:31 10.5 °C 10.1 °C 1002.9 hPa WSW 33.1 km/h 55.0 km/h 97% 9.9 mm 0 W/m2
04:36 10.5 °C 9.9 °C 1003.3 hPa WSW 45.4 km/h 61.1 km/h 96% 9.7 mm 0 W/m2
04:41 10.4 °C 9.6 °C 1003.3 hPa WSW 34.3 km/h 61.1 km/h 95% 8.9 mm 0 W/m2
04:46 10.5 °C 9.7 °C 1002.9 hPa WSW 27.0 km/h 61.1 km/h 95% 8.4 mm 0 W/m2
04:51 10.6 °C 9.7 °C 1002.9 hPa WSW 37.8 km/h 55.0 km/h 94% 7.9 mm 0 W/m2
04:56 10.7 °C 9.6 °C 1003.3 hPa WSW 28.0 km/h 55.0 km/h 93% 7.1 mm 0 W/m2
05:01 10.8 °C 9.7 °C 1003.3 hPa West 35.6 km/h 60.2 km/h 93% 7.1 mm 0 W/m2
05:07 11.0 °C 9.4 °C 1003.3 hPa WSW 27.0 km/h 60.2 km/h 90% 6.3 mm 0 W/m2
05:12 10.9 °C 9.3 °C 1003.3 hPa SW 36.7 km/h 48.9 km/h 90% 5.6 mm 0 W/m2
05:17 11.0 °C 8.9 °C 1003.6 hPa WSW 33.1 km/h 56.2 km/h 87% 4.8 mm 0 W/m2
05:22 11.1 °C 8.8 °C 1003.6 hPa WSW 34.3 km/h 56.2 km/h 86% 4.3 mm 0 W/m2
05:27 11.3 °C 9.1 °C 1003.6 hPa WSW 37.8 km/h 58.7 km/h 86% 3.3 mm 0 W/m2
05:32 11.3 °C 8.9 °C 1003.9 hPa WSW 39.3 km/h 58.7 km/h 85% 3.0 mm 0 W/m2
05:37 11.0 °C 8.9 °C 1003.6 hPa WSW 31.7 km/h 51.5 km/h 87% 2.3 mm 0 W/m2
05:42 11.0 °C 9.1 °C 1003.9 hPa WSW 31.7 km/h 54.1 km/h 88% 2.0 mm 0 W/m2
05:47 11.0 °C 8.9 °C 1003.9 hPa WSW 31.7 km/h 54.1 km/h 87% 2.3 mm 0 W/m2
05:52 11.0 °C 9.1 °C 1003.9 hPa WSW 36.7 km/h 52.6 km/h 88% 2.3 mm 0 W/m2
05:57 11.0 °C 8.9 °C 1003.9 hPa West 35.6 km/h 57.6 km/h 87% 2.0 mm 0 W/m2
06:02 11.0 °C 8.9 °C 1004.3 hPa WSW 34.3 km/h 57.6 km/h 87% 2.0 mm 0 W/m2
06:07 11.0 °C 8.8 °C 1004.3 hPa SW 29.4 km/h 57.6 km/h 86% 2.0 mm 0 W/m2
06:12 11.0 °C 8.9 °C 1004.3 hPa SW 34.3 km/h 51.5 km/h 87% 2.0 mm 0 W/m2
06:17 10.9 °C 9.0 °C 1004.3 hPa WSW 34.3 km/h 61.1 km/h 88% 2.3 mm 0 W/m2
06:22 11.0 °C 8.9 °C 1004.6 hPa WSW 30.6 km/h 61.1 km/h 87% 2.8 mm 0 W/m2
06:27 10.9 °C 9.0 °C 1004.6 hPa WSW 31.7 km/h 57.6 km/h 88% 3.0 mm 0 W/m2
06:32 10.9 °C 9.2 °C 1004.6 hPa WSW 28.0 km/h 52.6 km/h 89% 2.8 mm 0 W/m2
06:37 10.9 °C 9.2 °C 1004.6 hPa WSW 43.9 km/h 62.3 km/h 89% 2.8 mm 0 W/m2
06:42 11.1 °C 8.8 °C 1005.0 hPa WSW 33.1 km/h 62.3 km/h 86% 2.8 mm 0 W/m2
06:47 11.1 °C 9.0 °C 1005.3 hPa WSW 29.4 km/h 62.3 km/h 87% 2.3 mm 0 W/m2
06:52 10.9 °C 9.0 °C 1005.3 hPa WSW 28.0 km/h 60.2 km/h 88% 2.0 mm 0 W/m2
06:57 10.9 °C 9.0 °C 1005.3 hPa SW 35.6 km/h 52.6 km/h 88% 1.8 mm 0 W/m2
07:02 11.0 °C 8.9 °C 1005.6 hPa SW 29.4 km/h 63.7 km/h 87% 1.8 mm 0 W/m2
07:07 10.9 °C 9.0 °C 1005.6 hPa SW 31.7 km/h 63.7 km/h 88% 1.8 mm 0 W/m2
07:12 10.9 °C 8.8 °C 1006.0 hPa SW 34.3 km/h 58.7 km/h 87% 1.8 mm 2 W/m2
07:17 10.8 °C 8.9 °C 1006.0 hPa SW 28.0 km/h 58.7 km/h 88% 1.8 mm 2 W/m2
07:22 10.7 °C 8.6 °C 1006.0 hPa WSW 25.6 km/h 58.7 km/h 87% 1.5 mm 4 W/m2
07:27 10.9 °C 8.7 °C 1006.3 hPa WSW 29.4 km/h 56.2 km/h 86% 1.3 mm 3 W/m2
07:32 10.8 °C 8.6 °C 1006.3 hPa WSW 40.4 km/h 56.2 km/h 86% 1.3 mm 7 W/m2
07:37 10.8 °C 8.7 °C 1006.7 hPa WSW 30.6 km/h 57.6 km/h 87% 1.0 mm 7 W/m2
07:42 11.0 °C 8.6 °C 1006.7 hPa West 37.8 km/h 57.6 km/h 85% 1.0 mm 8 W/m2
07:47 10.9 °C 8.8 °C 1007.0 hPa West 41.7 km/h 56.2 km/h 87% 0.5 mm 9 W/m2
07:52 11.0 °C 8.8 °C 1007.3 hPa WSW 36.7 km/h 61.1 km/h 86% 1.0 mm 13 W/m2
07:57 10.7 °C 8.6 °C 1007.3 hPa WSW 46.5 km/h 61.1 km/h 87% 1.0 mm 15 W/m2
08:02 10.9 °C 8.7 °C 1007.3 hPa WSW 33.1 km/h 61.1 km/h 86% 0.5 mm 24 W/m2
08:07 10.9 °C 8.8 °C 1007.7 hPa WSW 33.1 km/h 61.1 km/h 87% 0.5 mm 24 W/m2
08:12 10.9 °C 8.8 °C 1008.0 hPa SW 30.6 km/h 60.2 km/h 87% 0.5 mm 27 W/m2
08:17 10.8 °C 8.6 °C 1008.0 hPa SW 34.3 km/h 67.3 km/h 86% 0.3 mm 27 W/m2
08:22 11.1 °C 8.5 °C 1008.0 hPa SW 27.0 km/h 67.3 km/h 84% 0.3 mm 39 W/m2
08:27 11.0 °C 8.6 °C 1008.4 hPa SW 33.1 km/h 60.2 km/h 85% 0.3 mm 47 W/m2
08:32 10.9 °C 8.5 °C 1008.4 hPa WSW 23.3 km/h 60.2 km/h 85% 0.3 mm 45 W/m2
08:37 10.9 °C 8.8 °C 1008.7 hPa SW 35.6 km/h 58.7 km/h 87% 0.3 mm 39 W/m2
08:57 10.4 °C 8.7 °C 1009.0 hPa SW 31.7 km/h 52.6 km/h 89% 0.3 mm 82 W/m2
09:02 10.8 °C 8.9 °C 1009.0 hPa SW 29.4 km/h 50.0 km/h 88% 0.3 mm 61 W/m2
09:07 10.9 °C 8.7 °C 1009.0 hPa SW 31.7 km/h 50.0 km/h 86% 0.3 mm 39 W/m2
09:12 11.0 °C 8.4 °C 1009.4 hPa SW 27.0 km/h 50.0 km/h 84% 0.3 mm 48 W/m2
09:17 11.0 °C 8.2 °C 1009.4 hPa SW 36.7 km/h 51.5 km/h 83% 0.3 mm 51 W/m2
09:22 11.0 °C 8.2 °C 1009.0 hPa SW 34.3 km/h 52.6 km/h 83% 0.5 mm 80 W/m2
09:27 11.1 °C 8.3 °C 1009.4 hPa SW 28.0 km/h 52.6 km/h 83% 0.5 mm 83 W/m2
09:32 11.1 °C 8.2 °C 1009.4 hPa WSW 25.6 km/h 55.0 km/h 82% 0.5 mm 103 W/m2
09:37 10.9 °C 8.3 °C 1009.4 hPa WSW 25.6 km/h 55.0 km/h 84% 0.5 mm 111 W/m2
09:42 10.6 °C 8.3 °C 1009.4 hPa SW 31.7 km/h 47.9 km/h 86% 0.5 mm 97 W/m2
09:47 10.8 °C 8.4 °C 1009.4 hPa SW 29.4 km/h 55.0 km/h 85% 1.3 mm 137 W/m2
09:52 11.0 °C 8.2 °C 1009.7 hPa SW 34.3 km/h 55.0 km/h 83% 1.0 mm 82 W/m2
09:57 11.1 °C 8.2 °C 1009.7 hPa West 28.0 km/h 54.1 km/h 82% 1.0 mm 88 W/m2
10:02 11.2 °C 8.2 °C 1009.7 hPa West 28.0 km/h 52.6 km/h 82% 1.0 mm 102 W/m2
10:07 11.4 °C 8.6 °C 1009.7 hPa WSW 33.1 km/h 57.6 km/h 83% 1.0 mm 102 W/m2
10:12 11.4 °C 8.4 °C 1009.7 hPa WSW 28.0 km/h 57.6 km/h 82% 1.0 mm 90 W/m2
10:17 11.2 °C 8.2 °C 1010.0 hPa WSW 34.3 km/h 56.2 km/h 82% 1.0 mm 135 W/m2
10:22 11.2 °C 8.2 °C 1010.0 hPa SW 31.7 km/h 56.2 km/h 82% 0.5 mm 166 W/m2
10:27 11.5 °C 8.3 °C 1010.0 hPa SW 34.3 km/h 54.1 km/h 81% 0.5 mm 150 W/m2
10:32 11.5 °C 8.6 °C 1010.0 hPa SW 19.5 km/h 52.6 km/h 82% 0.5 mm 178 W/m2
10:37 11.2 °C 8.4 °C 1010.4 hPa SW 21.9 km/h 50.0 km/h 83% 0.5 mm 239 W/m2
10:42 11.3 °C 8.3 °C 1010.4 hPa SW 35.6 km/h 52.6 km/h 82% 0.5 mm 117 W/m2
10:47 11.2 °C 8.4 °C 1010.7 hPa SW 27.0 km/h 52.6 km/h 83% 0.0 mm 179 W/m2
10:52 11.2 °C 8.2 °C 1010.4 hPa WSW 13.4 km/h 47.9 km/h 82% 0.0 mm 166 W/m2
10:57 11.3 °C 8.3 °C 1010.7 hPa SW 29.4 km/h 48.9 km/h 82% 0.0 mm 146 W/m2
11:02 10.9 °C 8.5 °C 1010.7 hPa SW 18.3 km/h 48.9 km/h 85% 0.0 mm 105 W/m2
11:07 10.5 °C 8.3 °C 1010.7 hPa SW 28.0 km/h 43.9 km/h 86% 0.3 mm 74 W/m2
11:12 10.6 °C 8.6 °C 1010.7 hPa SW 24.5 km/h 43.9 km/h 87% 0.5 mm 94 W/m2
11:17 11.0 °C 8.6 °C 1010.7 hPa SW 29.4 km/h 46.5 km/h 85% 0.5 mm 90 W/m2
11:22 11.1 °C 8.5 °C 1010.7 hPa SW 29.4 km/h 52.6 km/h 84% 0.5 mm 137 W/m2
11:27 11.1 °C 8.3 °C 1010.4 hPa WSW 21.9 km/h 52.6 km/h 83% 0.5 mm 167 W/m2
11:32 11.2 °C 8.4 °C 1010.7 hPa SW 19.5 km/h 47.9 km/h 83% 0.5 mm 186 W/m2
11:37 11.4 °C 8.6 °C 1010.7 hPa SW 20.9 km/h 45.4 km/h 83% 0.5 mm 171 W/m2
11:42 11.4 °C 8.4 °C 1010.7 hPa SW 20.9 km/h 45.4 km/h 82% 0.5 mm 177 W/m2
11:47 11.5 °C 8.3 °C 1010.4 hPa SW 25.6 km/h 45.4 km/h 81% 0.5 mm 148 W/m2
11:52 11.6 °C 8.3 °C 1010.4 hPa SW 27.0 km/h 43.9 km/h 80% 0.5 mm 96 W/m2
11:57 11.0 °C 8.2 °C 1010.7 hPa SW 36.7 km/h 46.5 km/h 83% 1.0 mm 157 W/m2
12:02 11.0 °C 8.4 °C 1010.7 hPa SW 34.3 km/h 46.5 km/h 84% 1.0 mm 104 W/m2
12:07 10.6 °C 8.0 °C 1010.7 hPa SW 33.1 km/h 54.1 km/h 84% 0.5 mm 104 W/m2
12:12 10.7 °C 8.3 °C 1010.7 hPa SW 24.5 km/h 54.1 km/h 85% 0.3 mm 84 W/m2
12:17 10.7 °C 8.3 °C 1010.7 hPa SW 25.6 km/h 50.0 km/h 85% 0.3 mm 112 W/m2
12:22 10.6 °C 8.3 °C 1011.1 hPa SW 25.6 km/h 39.3 km/h 86% 0.5 mm 97 W/m2
12:27 10.5 °C 8.6 °C 1010.7 hPa SW 20.9 km/h 37.8 km/h 88% 1.0 mm 51 W/m2
12:32 10.6 °C 8.7 °C 1011.1 hPa SW 28.0 km/h 42.8 km/h 88% 1.3 mm 82 W/m2
12:37 10.7 °C 8.3 °C 1010.7 hPa SW 17.2 km/h 42.8 km/h 85% 1.3 mm 85 W/m2
12:42 10.7 °C 8.3 °C 1010.7 hPa SW 14.8 km/h 41.7 km/h 85% 1.5 mm 99 W/m2
12:47 10.8 °C 8.2 °C 1010.7 hPa SW 25.6 km/h 39.3 km/h 84% 1.5 mm 77 W/m2
12:52 11.0 °C 8.1 °C 1010.7 hPa SSW 25.6 km/h 46.5 km/h 82% 1.5 mm 62 W/m2
12:57 11.0 °C 7.9 °C 1010.4 hPa SW 28.0 km/h 47.9 km/h 81% 1.5 mm 88 W/m2
13:02 11.2 °C 7.7 °C 1010.7 hPa SW 20.9 km/h 47.9 km/h 79% 1.5 mm 126 W/m2
13:07 11.5 °C 8.0 °C 1010.7 hPa SW 21.9 km/h 41.7 km/h 79% 1.5 mm 139 W/m2
13:12 11.8 °C 8.1 °C 1010.4 hPa SW 23.3 km/h 41.7 km/h 78% 1.5 mm 88 W/m2
13:17 11.8 °C 7.7 °C 1010.7 hPa SSW 18.3 km/h 39.3 km/h 76% 1.3 mm 111 W/m2
13:22 11.7 °C 7.6 °C 1011.1 hPa SSW 29.4 km/h 47.9 km/h 76% 1.3 mm 47 W/m2
13:27 10.8 °C 8.1 °C 1011.1 hPa SSW 27.0 km/h 54.1 km/h 83% 1.3 mm 82 W/m2
13:32 10.7 °C 7.9 °C 1010.7 hPa SW 20.9 km/h 54.1 km/h 83% 1.0 mm 110 W/m2
13:37 11.2 °C 7.5 °C 1011.1 hPa SW 27.0 km/h 42.8 km/h 78% 1.0 mm 136 W/m2
13:42 11.6 °C 7.5 °C 1011.1 hPa SW 23.3 km/h 52.6 km/h 76% 1.0 mm 157 W/m2
13:47 11.9 °C 7.8 °C 1011.1 hPa SW 18.3 km/h 52.6 km/h 76% 1.0 mm 205 W/m2
13:52 12.1 °C 7.8 °C 1011.1 hPa SW 34.3 km/h 51.5 km/h 75% 1.0 mm 176 W/m2
13:57 12.6 °C 6.6 °C 1011.1 hPa SW 23.3 km/h 51.5 km/h 67% 0.5 mm 133 W/m2
14:02 12.7 °C 6.1 °C 1011.1 hPa SSW 25.6 km/h 51.5 km/h 64% 0.5 mm 142 W/m2
14:07 12.5 °C 7.2 °C 1011.1 hPa SW 18.3 km/h 48.9 km/h 70% 0.5 mm 98 W/m2
14:12 12.3 °C 7.6 °C 1011.4 hPa SW 27.0 km/h 41.7 km/h 73% 0.5 mm 203 W/m2
14:17 12.9 °C 7.8 °C 1011.4 hPa WSW 27.0 km/h 45.4 km/h 71% 0.5 mm 205 W/m2
14:22 12.5 °C 7.4 °C 1011.7 hPa SW 9.7 km/h 45.4 km/h 71% 0.5 mm 85 W/m2
14:27 12.0 °C 7.3 °C 1011.7 hPa SW 23.3 km/h 39.3 km/h 73% 0.3 mm 85 W/m2
14:32 11.5 °C 7.4 °C 1011.7 hPa SW 15.8 km/h 39.3 km/h 76% 0.3 mm 111 W/m2
14:37 11.9 °C 7.6 °C 1011.7 hPa SSW 20.9 km/h 39.3 km/h 75% 0.0 mm 178 W/m2
14:42 12.4 °C 7.5 °C 1012.1 hPa SW 21.9 km/h 39.3 km/h 72% 0.0 mm 191 W/m2
14:47 12.5 °C 7.6 °C 1012.1 hPa SW 35.6 km/h 50.0 km/h 72% 0.0 mm 106 W/m2
14:52 10.7 °C 7.9 °C 1012.1 hPa SW 29.4 km/h 54.1 km/h 83% 1.0 mm 79 W/m2
14:57 10.6 °C 8.3 °C 1012.1 hPa SW 33.1 km/h 54.1 km/h 86% 1.3 mm 81 W/m2
15:01 11.0 °C 8.2 °C 1012.1 hPa SW 39.3 km/h 52.6 km/h 83% 1.3 mm 108 W/m2
15:06 11.2 °C 7.5 °C 1012.1 hPa SW 31.7 km/h 48.9 km/h 78% 1.3 mm 90 W/m2
15:11 11.6 °C 7.7 °C 1012.1 hPa SW 27.0 km/h 47.9 km/h 77% 1.3 mm 77 W/m2
15:16 11.4 °C 7.3 °C 1012.4 hPa SSW 37.8 km/h 47.9 km/h 76% 1.3 mm 54 W/m2
15:22 11.1 °C 7.4 °C 1012.1 hPa SSW 18.3 km/h 47.9 km/h 78% 1.3 mm 67 W/m2
15:27 11.5 °C 7.4 °C 1012.1 hPa SW 15.8 km/h 35.6 km/h 76% 1.3 mm 92 W/m2
15:32 11.7 °C 7.4 °C 1012.1 hPa SW 15.8 km/h 35.6 km/h 75% 1.3 mm 36 W/m2
15:37 11.2 °C 7.5 °C 1012.8 hPa SSW 20.9 km/h 46.5 km/h 78% 1.5 mm 18 W/m2
15:42 10.0 °C 7.6 °C 1012.4 hPa SSW 20.9 km/h 46.5 km/h 85% 3.8 mm 18 W/m2
15:47 9.5 °C 7.6 °C 1012.4 hPa SSW 14.8 km/h 46.5 km/h 88% 3.6 mm 23 W/m2
15:52 10.4 °C 8.5 °C 1012.4 hPa SSW 23.3 km/h 36.7 km/h 88% 3.6 mm 44 W/m2
15:57 10.9 °C 8.3 °C 1012.8 hPa SW 31.7 km/h 41.7 km/h 84% 3.3 mm 64 W/m2
16:02 11.2 °C 7.5 °C 1012.4 hPa SW 20.9 km/h 41.7 km/h 78% 3.3 mm 55 W/m2
16:07 11.2 °C 7.3 °C 1012.8 hPa SW 20.9 km/h 37.8 km/h 77% 3.3 mm 33 W/m2
16:12 10.9 °C 7.6 °C 1012.8 hPa SSW 19.5 km/h 37.8 km/h 80% 3.3 mm 17 W/m2
16:17 10.9 °C 8.1 °C 1012.8 hPa SSW 23.3 km/h 40.4 km/h 83% 3.8 mm 26 W/m2
16:22 11.3 °C 7.8 °C 1013.1 hPa SSW 23.3 km/h 48.9 km/h 79% 3.8 mm 21 W/m2
16:27 11.2 °C 8.2 °C 1013.4 hPa SSW 27.0 km/h 48.9 km/h 82% 3.8 mm 22 W/m2
16:32 10.9 °C 8.1 °C 1013.1 hPa WSW 33.1 km/h 48.9 km/h 83% 3.8 mm 21 W/m2
16:37 10.7 °C 8.1 °C 1013.1 hPa WSW 23.3 km/h 51.5 km/h 84% 3.0 mm 20 W/m2
16:42 10.5 °C 8.1 °C 1013.1 hPa SW 18.3 km/h 51.5 km/h 85% 1.0 mm 12 W/m2
16:47 10.5 °C 8.3 °C 1013.4 hPa SSW 25.6 km/h 46.5 km/h 86% 1.5 mm 6 W/m2
16:52 10.3 °C 8.2 °C 1013.4 hPa SSW 9.7 km/h 46.5 km/h 87% 1.3 mm 9 W/m2
16:57 10.4 °C 8.3 °C 1013.4 hPa SSW 25.6 km/h 40.4 km/h 87% 1.5 mm 8 W/m2
17:02 10.8 °C 8.2 °C 1013.4 hPa SSW 29.4 km/h 40.4 km/h 84% 1.5 mm 7 W/m2
17:07 10.7 °C 8.1 °C 1013.8 hPa SW 21.9 km/h 42.8 km/h 84% 1.5 mm 4 W/m2
17:12 10.6 °C 7.8 °C 1013.4 hPa WSW 20.9 km/h 42.8 km/h 83% 1.5 mm 1 W/m2
17:17 10.7 °C 7.6 °C 1013.4 hPa SW 20.9 km/h 35.6 km/h 81% 1.3 mm 2 W/m2
17:22 11.1 °C 7.6 °C 1013.4 hPa SSW 25.6 km/h 36.7 km/h 79% 1.3 mm 1 W/m2
17:27 11.2 °C 7.5 °C 1013.4 hPa SW 24.5 km/h 46.5 km/h 78% 1.3 mm 0 W/m2
17:32 11.2 °C 7.7 °C 1013.8 hPa SW 30.6 km/h 46.5 km/h 79% 1.3 mm 0 W/m2
17:37 11.2 °C 7.3 °C 1013.8 hPa SW 29.4 km/h 51.5 km/h 77% 1.3 mm 0 W/m2
17:42 11.2 °C 7.1 °C 1014.1 hPa SW 23.3 km/h 51.5 km/h 76% 1.3 mm 0 W/m2
17:47 11.2 °C 6.9 °C 1014.1 hPa SW 18.3 km/h 39.3 km/h 75% 0.5 mm 0 W/m2
17:52 11.1 °C 6.8 °C 1014.4 hPa SW 23.3 km/h 45.4 km/h 75% 0.3 mm 0 W/m2
17:57 11.1 °C 7.6 °C 1014.8 hPa SW 31.7 km/h 45.4 km/h 79% 0.3 mm 0 W/m2
18:02 10.8 °C 7.8 °C 1014.8 hPa SW 18.3 km/h 42.8 km/h 82% 0.3 mm 0 W/m2
18:07 10.7 °C 7.9 °C 1014.8 hPa SW 14.8 km/h 42.8 km/h 83% 0.5 mm 0 W/m2
18:12 10.7 °C 7.9 °C 1014.8 hPa SW 25.6 km/h 33.1 km/h 83% 0.3 mm 0 W/m2
18:17 10.6 °C 7.8 °C 1014.8 hPa SW 18.3 km/h 37.8 km/h 83% 0.3 mm 0 W/m2
18:22 10.4 °C 8.0 °C 1015.1 hPa SW 17.2 km/h 37.8 km/h 85% 0.3 mm 0 W/m2
18:27 10.4 °C 8.0 °C 1015.1 hPa SW 24.5 km/h 33.1 km/h 85% 0.5 mm 0 W/m2
18:32 10.9 °C 8.3 °C 1015.1 hPa SW 31.7 km/h 51.5 km/h 84% 1.0 mm 0 W/m2
18:37 10.9 °C 8.3 °C 1015.1 hPa SW 24.5 km/h 51.5 km/h 84% 1.0 mm 0 W/m2
18:42 10.7 °C 7.8 °C 1015.5 hPa SW 24.5 km/h 51.5 km/h 82% 1.3 mm 0 W/m2
18:47 10.6 °C 7.8 °C 1015.5 hPa SW 29.4 km/h 46.5 km/h 83% 1.5 mm 0 W/m2
18:52 10.6 °C 7.8 °C 1015.5 hPa SW 17.2 km/h 40.4 km/h 83% 1.5 mm 0 W/m2
18:57 10.4 °C 7.8 °C 1015.8 hPa SSW 14.8 km/h 40.4 km/h 84% 1.8 mm 0 W/m2
19:02 10.6 °C 7.8 °C 1015.8 hPa SW 18.3 km/h 33.1 km/h 83% 2.0 mm 0 W/m2
19:07 10.7 °C 7.9 °C 1015.5 hPa SW 18.3 km/h 35.6 km/h 83% 1.8 mm 0 W/m2
19:12 10.8 °C 7.5 °C 1015.5 hPa SW 18.3 km/h 41.7 km/h 80% 1.8 mm 0 W/m2
19:17 10.9 °C 7.8 °C 1015.8 hPa SW 20.9 km/h 41.7 km/h 81% 1.8 mm 0 W/m2
19:22 11.0 °C 7.7 °C 1015.8 hPa SW 28.0 km/h 39.3 km/h 80% 1.8 mm 0 W/m2
19:27 10.9 °C 7.8 °C 1015.8 hPa SW 25.6 km/h 43.9 km/h 81% 1.3 mm 0 W/m2
19:32 10.8 °C 7.8 °C 1015.8 hPa SW 20.9 km/h 43.9 km/h 82% 1.3 mm 0 W/m2
19:37 11.0 °C 7.7 °C 1016.1 hPa SW 23.3 km/h 40.4 km/h 80% 1.3 mm 0 W/m2
19:42 10.8 °C 7.5 °C 1016.1 hPa SW 20.9 km/h 42.8 km/h 80% 1.0 mm 0 W/m2
19:47 10.5 °C 7.7 °C 1016.1 hPa SW 15.8 km/h 42.8 km/h 83% 0.5 mm 0 W/m2
19:52 10.3 °C 7.7 °C 1016.5 hPa SW 18.3 km/h 39.3 km/h 84% 1.0 mm 0 W/m2
19:57 10.2 °C 7.6 °C 1016.5 hPa SSW 23.3 km/h 36.7 km/h 84% 0.5 mm 0 W/m2
20:02 10.3 °C 7.7 °C 1016.1 hPa SW 12.2 km/h 33.1 km/h 84% 0.3 mm 0 W/m2
20:07 10.6 °C 8.0 °C 1016.1 hPa SW 14.8 km/h 33.1 km/h 84% 0.3 mm 0 W/m2
20:12 10.7 °C 7.9 °C 1016.5 hPa SW 21.9 km/h 39.3 km/h 83% 0.3 mm 0 W/m2
20:17 10.8 °C 8.1 °C 1016.1 hPa SW 18.3 km/h 39.3 km/h 83% 0.3 mm 0 W/m2
20:22 10.7 °C 7.9 °C 1016.1 hPa WSW 23.3 km/h 45.4 km/h 83% 0.5 mm 0 W/m2
20:27 10.6 °C 7.8 °C 1016.5 hPa WSW 20.9 km/h 45.4 km/h 83% 0.5 mm 0 W/m2
20:32 10.7 °C 7.8 °C 1016.5 hPa WSW 17.2 km/h 39.3 km/h 82% 0.5 mm 0 W/m2
20:37 10.8 °C 7.8 °C 1016.5 hPa SW 28.0 km/h 45.4 km/h 82% 0.5 mm 0 W/m2
20:42 10.7 °C 8.1 °C 1016.8 hPa SW 30.6 km/h 45.4 km/h 84% 0.5 mm 0 W/m2
20:47 10.5 °C 8.1 °C 1016.8 hPa SW 25.6 km/h 42.8 km/h 85% 1.0 mm 0 W/m2
20:52 10.4 °C 8.2 °C 1016.8 hPa SW 12.2 km/h 42.8 km/h 86% 0.5 mm 0 W/m2
20:57 10.4 °C 7.8 °C 1017.2 hPa SW 17.2 km/h 35.6 km/h 84% 0.5 mm 0 W/m2
21:02 10.4 °C 7.7 °C 1017.2 hPa SW 25.6 km/h 35.6 km/h 83% 0.5 mm 0 W/m2
21:07 10.5 °C 7.7 °C 1017.2 hPa SW 23.3 km/h 34.3 km/h 83% 0.5 mm 0 W/m2
21:12 10.6 °C 7.8 °C 1017.2 hPa SW 18.3 km/h 37.8 km/h 83% 0.5 mm 0 W/m2
21:17 10.5 °C 7.7 °C 1017.2 hPa SSW 19.5 km/h 40.4 km/h 83% 0.5 mm 0 W/m2
21:22 10.4 °C 7.8 °C 1017.2 hPa SSW 24.5 km/h 40.4 km/h 84% 0.5 mm 0 W/m2
21:27 10.4 °C 8.0 °C 1017.5 hPa SW 21.9 km/h 40.4 km/h 85% 0.5 mm 0 W/m2
21:32 10.4 °C 8.2 °C 1017.5 hPa SW 21.9 km/h 40.4 km/h 86% 0.5 mm 0 W/m2
21:37 10.5 °C 8.1 °C 1017.5 hPa SW 20.9 km/h 39.3 km/h 85% 0.5 mm 0 W/m2
21:42 10.5 °C 8.1 °C 1017.5 hPa SW 27.0 km/h 37.8 km/h 85% 0.5 mm 0 W/m2
21:47 10.5 °C 7.9 °C 1017.5 hPa SW 20.9 km/h 41.7 km/h 84% 0.5 mm 0 W/m2
21:52 10.5 °C 7.9 °C 1017.5 hPa WSW 30.6 km/h 41.7 km/h 84% 0.5 mm 0 W/m2
21:57 10.6 °C 8.0 °C 1017.8 hPa SW 20.9 km/h 39.3 km/h 84% 1.0 mm 0 W/m2
22:02 10.6 °C 8.0 °C 1017.8 hPa SW 21.9 km/h 39.3 km/h 84% 1.0 mm 0 W/m2
22:07 10.6 °C 8.2 °C 1017.8 hPa SW 18.3 km/h 54.1 km/h 85% 1.0 mm 0 W/m2
22:12 10.7 °C 8.3 °C 1017.8 hPa WSW 30.6 km/h 54.1 km/h 85% 1.0 mm 0 W/m2
22:17 10.5 °C 8.1 °C 1017.8 hPa WSW 23.3 km/h 40.4 km/h 85% 0.5 mm 0 W/m2
22:22 10.3 °C 8.2 °C 1018.2 hPa WSW 23.3 km/h 40.4 km/h 87% 0.5 mm 0 W/m2
22:27 10.5 °C 8.1 °C 1018.2 hPa SW 18.3 km/h 39.3 km/h 85% 0.5 mm 0 W/m2
22:32 10.5 °C 8.1 °C 1017.8 hPa SW 18.3 km/h 39.3 km/h 85% 0.5 mm 0 W/m2
22:37 10.5 °C 8.1 °C 1017.8 hPa SW 18.3 km/h 31.7 km/h 85% 0.5 mm 0 W/m2
22:42 10.5 °C 7.9 °C 1017.8 hPa SW 21.9 km/h 33.1 km/h 84% 1.0 mm 0 W/m2
22:47 10.7 °C 8.1 °C 1017.8 hPa SW 21.9 km/h 34.3 km/h 84% 0.5 mm 0 W/m2
22:52 10.7 °C 8.3 °C 1017.8 hPa SW 30.6 km/h 36.7 km/h 85% 0.5 mm 0 W/m2
22:57 10.5 °C 8.1 °C 1018.2 hPa SW 24.5 km/h 36.7 km/h 85% 0.3 mm 0 W/m2
23:02 10.5 °C 8.1 °C 1018.2 hPa SW 30.6 km/h 43.9 km/h 85% 0.3 mm 0 W/m2
23:07 10.4 °C 8.0 °C 1018.2 hPa WSW 19.5 km/h 43.9 km/h 85% 0.3 mm 0 W/m2
23:12 10.4 °C 8.0 °C 1018.2 hPa West 23.3 km/h 45.4 km/h 85% 0.3 mm 0 W/m2
23:17 10.4 °C 8.0 °C 1018.2 hPa West 27.0 km/h 45.4 km/h 85% 0.3 mm 0 W/m2
23:22 10.3 °C 8.1 °C 1018.2 hPa WSW 14.8 km/h 39.3 km/h 86% 0.3 mm 0 W/m2
23:27 10.2 °C 8.1 °C 1018.2 hPa WSW 14.8 km/h 39.3 km/h 87% 0.3 mm 0 W/m2
23:32 10.3 °C 7.9 °C 1018.2 hPa WSW 8.7 km/h 36.7 km/h 85% 0.3 mm 0 W/m2
23:37 10.5 °C 8.1 °C 1018.5 hPa SW 18.3 km/h 35.6 km/h 85% 0.3 mm 0 W/m2
23:42 10.8 °C 8.4 °C 1018.5 hPa SW 20.9 km/h 35.6 km/h 85% 0.0 mm 0 W/m2
23:47 10.8 °C 8.2 °C 1018.2 hPa SW 19.5 km/h 28.0 km/h 84% 0.0 mm 0 W/m2
23:52 10.9 °C 8.1 °C 1018.5 hPa SW 21.9 km/h 34.3 km/h 83% 0.0 mm 0 W/m2
23:57 10.9 °C 8.1 °C 1018.2 hPa SW 19.5 km/h 35.6 km/h 83% 0.0 mm 0 W/m2
Northern Hawkes Bay. New Zealand Historic Data
Compliments of Weather Underground - 2.25 mb